| time (UTC) | temp F | wind direction | speed MPH | gust MPH | rain 1hr in | rain 24hr in | rain mn in | humidity % | barometer mb |
| 20260507073523 | 39 | 296 | 1.0 | 2.0 | 0.00 | 0.02 | 0.00 | 88 | 1015.7 |
| 20260507072625 | 40 | 300 | 0.0 | 1.0 | 0.00 | 0.02 | 0.00 | 87 | 1015.7 |
| 20260507071723 | 40 | 300 | 0.0 | 1.0 | 0.00 | 0.03 | 0.00 | 87 | 1015.7 |
| 20260507070907 | 40 | 300 | 0.0 | 0.0 | 0.00 | 0.03 | 0.00 | 88 | 1015.8 |
| 20260507070823 | 40 | 300 | 0.0 | 0.0 | 0.00 | 0.03 | 0.00 | 88 | 1015.8 |
| 20260507065922 | 40 | 300 | 0.0 | 1.0 | 0.00 | 0.03 | 0.00 | 88 | 1015.8 |
| 20260507065022 | 41 | 300 | 0.0 | 1.0 | 0.00 | 0.03 | 0.00 | 88 | 1015.9 |
| 20260507064122 | 41 | 300 | 0.0 | 0.0 | 0.00 | 0.03 | 0.00 | 89 | 1016.0 |
| 20260507062322 | 40 | 300 | 0.0 | 0.0 | 0.00 | 0.03 | 0.00 | 89 | 1016.1 |
| 20260507061424 | 41 | 300 | 0.0 | 0.0 | 0.00 | 0.03 | 0.00 | 89 | 1016.1 |
| 20260507060522 | 41 | 300 | 0.0 | 0.0 | 0.00 | 0.04 | 0.00 | 89 | 1016.0 |
| 20260507055624 | 41 | 300 | 0.0 | 0.0 | 0.00 | 0.05 | 0.00 | 89 | 1016.0 |
| 20260507054723 | 41 | 300 | 0.0 | 0.0 | 0.00 | 0.07 | 0.00 | 88 | 1015.9 |
| 20260507053857 | 41 | 300 | 0.0 | 0.0 | 0.00 | 0.08 | 0.00 | 88 | 1015.9 |
| 20260507053822 | 41 | 300 | 0.0 | 0.0 | 0.00 | 0.08 | 0.00 | 88 | 1015.9 |
| 20260507052923 | 41 | 300 | 0.0 | 0.0 | 0.00 | 0.10 | 0.00 | 87 | 1015.9 |
| 20260507052024 | 42 | 300 | 0.0 | 0.0 | 0.00 | 0.10 | 0.00 | 87 | 1015.8 |
| 20260507051123 | 42 | 300 | 0.0 | 0.0 | 0.00 | 0.12 | 0.00 | 88 | 1015.9 |
| 20260507050222 | 42 | 300 | 0.0 | 0.0 | 0.00 | 0.12 | 0.00 | 87 | 1016.0 |
| 20260507045323 | 42 | 300 | 0.0 | 0.0 | 0.00 | 0.14 | 0.00 | 87 | 1016.0 |
| 20260507044422 | 43 | 300 | 0.0 | 1.0 | 0.00 | 0.16 | 0.00 | 86 | 1015.8 |
| 20260507043522 | 43 | 300 | 0.0 | 0.0 | 0.00 | 0.19 | 0.00 | 86 | 1015.7 |
| 20260507042622 | 43 | 300 | 0.0 | 0.0 | 0.00 | 0.22 | 0.00 | 84 | 1015.7 |
| 20260507040823 | 43 | 300 | 0.0 | 0.0 | 0.00 | 0.29 | 0.00 | 85 | 1015.8 |
| 20260507035923 | 43 | 300 | 0.0 | 0.0 | 0.00 | 0.29 | 0.00 | 85 | 1015.8 |
| 20260507035022 | 43 | 300 | 0.0 | 0.0 | 0.00 | 0.29 | 0.29 | 85 | 1015.9 |
| 20260507034123 | 44 | 300 | 0.0 | 0.0 | 0.00 | 0.30 | 0.29 | 85 | 1015.9 |
| 20260507033222 | 44 | 300 | 0.0 | 0.0 | 0.00 | 0.31 | 0.29 | 86 | 1016.0 |
| 20260507032322 | 43 | 299 | 0.0 | 0.0 | 0.00 | 0.37 | 0.29 | 85 | 1015.9 |
| 20260507031426 | 43 | 300 | 0.0 | 0.0 | 0.00 | 0.43 | 0.29 | 84 | 1015.9 |
| 20260507030522 | 43 | 300 | 0.0 | 0.0 | 0.00 | 0.50 | 0.29 | 84 | 1015.9 |
| 20260507025621 | 44 | 300 | 0.0 | 0.0 | 0.00 | 0.50 | 0.29 | 84 | 1016.0 |
| 20260507024723 | 44 | 300 | 0.0 | 0.0 | 0.00 | 0.50 | 0.29 | 84 | 1016.0 |
| 20260507023822 | 45 | 300 | 0.0 | 0.0 | 0.00 | 0.51 | 0.29 | 84 | 1015.8 |
| 20260507022922 | 45 | 300 | 0.0 | 0.0 | 0.00 | 0.51 | 0.29 | 83 | 1016.0 |
| 20260507022021 | 45 | 300 | 0.0 | 0.0 | 0.00 | 0.51 | 0.29 | 82 | 1015.9 |
| 20260507021122 | 45 | 300 | 0.0 | 0.0 | 0.00 | 0.51 | 0.29 | 81 | 1015.8 |
| 20260507020720 | 46 | 300 | 0.0 | 0.0 | 0.00 | 0.52 | 0.29 | 80 | 1015.8 |
| 20260507020224 | 46 | 300 | 0.0 | 0.0 | 0.00 | 0.52 | 0.29 | 80 | 1015.8 |
| 20260507015322 | 46 | 300 | 0.0 | 0.0 | 0.00 | 0.53 | 0.29 | 79 | 1015.7 |
| 20260507014423 | 47 | 300 | 0.0 | 0.0 | 0.00 | 0.54 | 0.29 | 78 | 1015.6 |
| 20260507013522 | 48 | 299 | 0.0 | 0.0 | 0.00 | 0.55 | 0.29 | 77 | 1015.5 |
| 20260507012621 | 49 | 300 | 0.0 | 0.0 | 0.00 | 0.57 | 0.29 | 77 | 1015.3 |
| 20260507011723 | 49 | 299 | 0.0 | 0.0 | 0.00 | 0.60 | 0.29 | 74 | 1015.2 |
| 20260507010821 | 50 | 299 | 0.0 | 0.0 | 0.00 | 0.61 | 0.29 | 73 | 1015.1 |
| 20260507005922 | 51 | 299 | 0.0 | 0.0 | 0.00 | 0.62 | 0.29 | 70 | 1015.1 |
| 20260507005023 | 51 | 299 | 0.0 | 0.0 | 0.00 | 0.63 | 0.29 | 70 | 1015.1 |
| 20260507004123 | 52 | 299 | 0.0 | 0.0 | 0.00 | 0.66 | 0.29 | 69 | 1015.1 |
| 20260507003222 | 52 | 299 | 1.0 | 1.0 | 0.00 | 0.69 | 0.29 | 68 | 1014.9 |
| 20260507002324 | 52 | 298 | 1.0 | 2.0 | 0.00 | 0.72 | 0.29 | 68 | 1014.8 |
| 20260507001424 | 53 | 302 | 2.0 | 3.0 | 0.00 | 0.78 | 0.29 | 65 | 1014.6 |
| 20260507000523 | 54 | 304 | 3.0 | 3.0 | 0.00 | 0.82 | 0.29 | 62 | 1014.6 |
| 20260506235622 | 55 | 306 | 3.0 | 3.0 | 0.00 | 0.86 | 0.29 | 61 | 1014.5 |
| 20260506234723 | 55 | 307 | 5.0 | 6.0 | 0.00 | 0.90 | 0.29 | 60 | 1014.3 |
| 20260506233823 | 55 | 290 | 5.0 | 6.0 | 0.00 | 0.93 | 0.29 | 64 | 1014.3 |
| 20260506232922 | 55 | 304 | 3.0 | 5.0 | 0.00 | 0.96 | 0.29 | 60 | 1014.5 |
| 20260506232023 | 55 | 302 | 5.0 | 5.0 | 0.00 | 0.98 | 0.29 | 62 | 1014.5 |
| 20260506231122 | 55 | 303 | 2.0 | 3.0 | 0.00 | 1.00 | 0.29 | 64 | 1014.5 |
| 20260506230225 | 54 | 304 | 1.0 | 2.0 | 0.00 | 1.01 | 0.29 | 65 | 1014.5 |
| 20260506225322 | 54 | 305 | 1.0 | 2.0 | 0.00 | 1.03 | 0.29 | 65 | 1014.6 |
| 20260506224424 | 54 | 310 | 1.0 | 2.0 | 0.00 | 1.06 | 0.29 | 64 | 1014.6 |
| 20260506223523 | 54 | 308 | 1.0 | 3.0 | 0.00 | 1.08 | 0.29 | 65 | 1014.9 |
| 20260506222623 | 54 | 291 | 3.0 | 5.0 | 0.00 | 1.11 | 0.29 | 65 | 1015.0 |
| 20260506220825 | 54 | 296 | 3.0 | 5.0 | 0.00 | 1.16 | 0.29 | 64 | 1015.0 |
| 20260506215922 | 55 | 291 | 3.0 | 6.0 | 0.00 | 1.17 | 0.29 | 64 | 1015.0 |
| 20260506215023 | 55 | 302 | 5.0 | 7.0 | 0.00 | 1.18 | 0.29 | 61 | 1014.7 |
| 20260506214123 | 55 | 304 | 3.0 | 3.0 | 0.00 | 1.19 | 0.29 | 62 | 1014.6 |
| 20260506212322 | 55 | 307 | 5.0 | 6.0 | 0.00 | 1.19 | 0.29 | 59 | 1014.5 |
| 20260506211425 | 55 | 294 | 5.0 | 5.0 | 0.00 | 1.19 | 0.29 | 61 | 1014.6 |
| 20260506210523 | 55 | 313 | 3.0 | 5.0 | 0.00 | 1.19 | 0.29 | 56 | 1014.5 |
| 20260506205623 | 56 | 284 | 1.0 | 3.0 | 0.00 | 1.19 | 0.29 | 62 | 1014.5 |
| 20260506204723 | 55 | 292 | 5.0 | 5.0 | 0.00 | 1.19 | 0.29 | 58 | 1014.5 |
| 20260506203821 | 55 | 309 | 2.0 | 3.0 | 0.00 | 1.19 | 0.29 | 58 | 1014.6 |
| 20260506202924 | 55 | 294 | 2.0 | 5.0 | 0.00 | 1.19 | 0.29 | 57 | 1014.7 |
| 20260506202023 | 55 | 302 | 2.0 | 3.0 | 0.00 | 1.19 | 0.29 | 61 | 1014.6 |
| 20260506201122 | 55 | 306 | 5.0 | 5.0 | 0.00 | 1.19 | 0.29 | 61 | 1014.7 |
| 20260506200223 | 55 | 303 | 2.0 | 3.0 | 0.00 | 1.20 | 0.29 | 58 | 1014.6 |
| 20260506195402 | 55 | 315 | 3.0 | 3.0 | 0.00 | 1.22 | 0.29 | 62 | 1014.6 |
| 20260506195323 | 55 | 315 | 3.0 | 3.0 | 0.00 | 1.22 | 0.29 | 62 | 1014.6 |
| 20260506193523 | 55 | 313 | 3.0 | 6.0 | 0.00 | 1.25 | 0.29 | 61 | 1014.3 |
| 20260506192622 | 55 | 307 | 3.0 | 5.0 | 0.00 | 1.26 | 0.29 | 63 | 1014.3 |
| 20260506191723 | 54 | 297 | 1.0 | 2.0 | 0.00 | 1.27 | 0.29 | 63 | 1014.3 |
| 20260506190823 | 54 | 291 | 2.0 | 3.0 | 0.00 | 1.30 | 0.29 | 62 | 1014.4 |
| 20260506185923 | 54 | 310 | 3.0 | 3.0 | 0.00 | 1.32 | 0.29 | 62 | 1014.5 |
| 20260506184123 | 55 | 304 | 2.0 | 3.0 | 0.00 | 1.36 | 0.29 | 62 | 1014.5 |
| 20260506183224 | 54 | 282 | 1.0 | 3.0 | 0.00 | 1.37 | 0.29 | 63 | 1014.6 |
| 20260506182324 | 54 | 296 | 2.0 | 5.0 | 0.00 | 1.37 | 0.29 | 64 | 1014.6 |
| 20260506181422 | 54 | 307 | 1.0 | 1.0 | 0.00 | 1.37 | 0.29 | 60 | 1014.6 |
| 20260506180525 | 54 | 294 | 3.0 | 5.0 | 0.00 | 1.37 | 0.29 | 61 | 1014.5 |
| 20260506175622 | 54 | 297 | 1.0 | 2.0 | 0.00 | 1.37 | 0.29 | 61 | 1014.3 |
| 20260506174723 | 54 | 322 | 1.0 | 3.0 | 0.00 | 1.38 | 0.29 | 63 | 1014.3 |
| 20260506173822 | 54 | 304 | 1.0 | 1.0 | 0.00 | 1.38 | 0.29 | 64 | 1014.6 |
| 20260506173015 | 54 | 306 | 1.0 | 1.0 | 0.00 | 1.38 | 0.29 | 65 | 1014.7 |
| 20260506172922 | 54 | 306 | 1.0 | 1.0 | 0.00 | 1.38 | 0.29 | 65 | 1014.7 |
| 20260506172023 | 54 | 304 | 2.0 | 3.0 | 0.00 | 1.38 | 0.29 | 61 | 1014.8 |
| 20260506171123 | 54 | 317 | 1.0 | 1.0 | 0.00 | 1.38 | 0.29 | 62 | 1014.8 |
| 20260506170222 | 54 | 304 | 3.0 | 3.0 | 0.00 | 1.38 | 0.29 | 62 | 1014.7 |
| 20260506165322 | 54 | 299 | 1.0 | 5.0 | 0.00 | 1.38 | 0.29 | 64 | 1014.4 |
| 20260506164423 | 55 | 291 | 2.0 | 3.0 | 0.00 | 1.38 | 0.29 | 62 | 1014.3 |
| 20260506163522 | 54 | 312 | 2.0 | 3.0 | 0.00 | 1.38 | 0.29 | 66 | 1014.4 |
| 20260506162621 | 54 | 298 | 1.0 | 5.0 | 0.00 | 1.38 | 0.29 | 63 | 1014.5 |
| 20260506161723 | 53 | 305 | 1.0 | 1.0 | 0.00 | 1.38 | 0.29 | 63 | 1014.5 |
| 20260506160856 | 54 | 304 | 2.0 | 3.0 | 0.00 | 1.38 | 0.29 | 63 | 1014.4 |
| 20260506160823 | 54 | 304 | 2.0 | 3.0 | 0.00 | 1.38 | 0.29 | 63 | 1014.4 |
| 20260506155922 | 54 | 299 | 1.0 | 2.0 | 0.00 | 1.38 | 0.29 | 66 | 1014.5 |
| 20260506155022 | 54 | 310 | 2.0 | 2.0 | 0.00 | 1.38 | 0.29 | 66 | 1014.4 |
| 20260506154121 | 54 | 310 | 2.0 | 3.0 | 0.00 | 1.38 | 0.29 | 63 | 1014.6 |
| 20260506153223 | 54 | 302 | 2.0 | 3.0 | 0.00 | 1.38 | 0.29 | 64 | 1014.1 |
| 20260506152322 | 54 | 286 | 2.0 | 3.0 | 0.00 | 1.38 | 0.29 | 65 | 1014.3 |
| 20260506151422 | 53 | 300 | 5.0 | 6.0 | 0.00 | 1.38 | 0.29 | 65 | 1014.0 |
| 20260506150523 | 52 | 307 | 1.0 | 3.0 | 0.00 | 1.38 | 0.29 | 65 | 1014.1 |
| 20260506145621 | 52 | 303 | 5.0 | 6.0 | 0.00 | 1.38 | 0.29 | 69 | 1014.0 |
| 20260506144721 | 51 | 293 | 6.0 | 8.0 | 0.00 | 1.38 | 0.29 | 68 | 1013.9 |
| 20260506143821 | 51 | 315 | 2.0 | 3.0 | 0.00 | 1.38 | 0.29 | 69 | 1013.6 |
| 20260506142922 | 50 | 323 | 1.0 | 2.0 | 0.00 | 1.38 | 0.29 | 71 | 1013.5 |
| 20260506142023 | 50 | 304 | 2.0 | 6.0 | 0.00 | 1.38 | 0.29 | 72 | 1013.5 |
| 20260506141122 | 49 | 309 | 1.0 | 3.0 | 0.00 | 1.38 | 0.29 | 74 | 1013.3 |
| 20260506135321 | 48 | 306 | 2.0 | 5.0 | 0.00 | 1.38 | 0.29 | 77 | 1013.6 |
| 20260506134423 | 48 | 297 | 5.0 | 5.0 | 0.00 | 1.38 | 0.29 | 79 | 1013.6 |
| 20260506133521 | 47 | 305 | 1.0 | 3.0 | 0.00 | 1.38 | 0.29 | 81 | 1013.4 |
| 20260506132622 | 47 | 297 | 2.0 | 3.0 | 0.00 | 1.38 | 0.29 | 82 | 1013.4 |
| 20260506131723 | 46 | 304 | 0.0 | 2.0 | 0.00 | 1.38 | 0.29 | 86 | 1013.4 |
| 20260506130821 | 45 | 290 | 3.0 | 5.0 | 0.00 | 1.38 | 0.29 | 86 | 1013.5 |
| 20260506125921 | 45 | 312 | 0.0 | 1.0 | 0.00 | 1.38 | 0.29 | 89 | 1013.2 |
| 20260506125023 | 44 | 301 | 1.0 | 2.0 | 0.00 | 1.38 | 0.29 | 90 | 1013.1 |
| 20260506124122 | 44 | 299 | 1.0 | 2.0 | 0.00 | 1.38 | 0.29 | 91 | 1013.0 |
| 20260506123225 | 44 | 294 | 0.0 | 1.0 | 0.00 | 1.38 | 0.29 | 91 | 1012.9 |
| 20260506122322 | 43 | 293 | 2.0 | 2.0 | 0.00 | 1.38 | 0.29 | 92 | 1012.7 |
| 20260506121422 | 43 | 305 | 2.0 | 2.0 | 0.00 | 1.38 | 0.29 | 92 | 1012.8 |
| 20260506120521 | 43 | 296 | 0.0 | 1.0 | 0.00 | 1.38 | 0.29 | 93 | 1012.5 |
| 20260506115622 | 43 | 296 | 0.0 | 0.0 | 0.00 | 1.38 | 0.29 | 93 | 1012.2 |
| 20260506114730 | 43 | 300 | 0.0 | 1.0 | 0.00 | 1.38 | 0.29 | 93 | 1011.9 |
| 20260506113821 | 43 | 300 | 0.0 | 0.0 | 0.00 | 1.38 | 0.29 | 93 | 1011.6 |
| 20260506112922 | 42 | 289 | 0.0 | 1.0 | 0.00 | 1.38 | 0.29 | 93 | 1011.6 |
| 20260506112024 | 42 | 289 | 0.0 | 0.0 | 0.00 | 1.38 | 0.29 | 93 | 1011.3 |
| 20260506111121 | 42 | 289 | 0.0 | 0.0 | 0.00 | 1.38 | 0.29 | 93 | 1011.1 |
| 20260506110222 | 42 | 289 | 0.0 | 0.0 | 0.00 | 1.38 | 0.29 | 93 | 1010.9 |
| 20260506105322 | 42 | 289 | 0.0 | 0.0 | 0.00 | 1.38 | 0.29 | 93 | 1010.7 |
| 20260506104422 | 42 | 289 | 0.0 | 0.0 | 0.00 | 1.38 | 0.29 | 93 | 1010.8 |
| 20260506103522 | 42 | 289 | 0.0 | 0.0 | 0.00 | 1.38 | 0.29 | 93 | 1011.1 |
| 20260506102622 | 42 | 289 | 0.0 | 0.0 | 0.00 | 1.38 | 0.29 | 93 | 1010.8 |
| 20260506101723 | 42 | 289 | 0.0 | 0.0 | 0.00 | 1.38 | 0.29 | 92 | 1010.5 |
| 20260506100821 | 42 | 289 | 0.0 | 0.0 | 0.00 | 1.38 | 0.29 | 92 | 1010.4 |
| 20260506095922 | 42 | 289 | 0.0 | 0.0 | 0.00 | 1.39 | 0.29 | 92 | 1010.1 |
| 20260506095023 | 42 | 289 | 0.0 | 0.0 | 0.00 | 1.39 | 0.29 | 92 | 1010.2 |
| 20260506094122 | 42 | 289 | 0.0 | 0.0 | 0.00 | 1.39 | 0.29 | 92 | 1010.0 |
| 20260506093223 | 42 | 289 | 0.0 | 0.0 | 0.00 | 1.39 | 0.29 | 92 | 1010.0 |
| 20260506092321 | 42 | 289 | 0.0 | 0.0 | 0.00 | 1.39 | 0.29 | 93 | 1010.1 |
| 20260506091422 | 42 | 289 | 0.0 | 0.0 | 0.00 | 1.39 | 0.29 | 93 | 1010.2 |
| 20260506090522 | 41 | 285 | 0.0 | 1.0 | 0.00 | 1.40 | 0.29 | 92 | 1010.3 |
| 20260506085623 | 42 | 242 | 0.0 | 0.0 | 0.01 | 1.40 | 0.29 | 92 | 1009.8 |
| 20260506084723 | 42 | 242 | 0.0 | 0.0 | 0.01 | 1.41 | 0.29 | 92 | 1009.7 |
| 20260506083822 | 42 | 241 | 0.0 | 0.0 | 0.01 | 1.43 | 0.29 | 92 | 1009.3 |
| 20260506082921 | 42 | 241 | 0.0 | 0.0 | 0.02 | 1.48 | 0.29 | 92 | 1009.8 |
| 20260506082022 | 41 | 241 | 0.0 | 0.0 | 0.02 | 1.52 | 0.29 | 92 | 1009.8 |
| 20260506081122 | 41 | 242 | 0.0 | 1.0 | 0.03 | 1.55 | 0.29 | 92 | 1009.3 |
| 20260506080221 | 41 | 249 | 0.0 | 1.0 | 0.03 | 1.59 | 0.29 | 92 | 1008.9 |